Wetbulb
71.71 72.17 73.37 74.07 74.45 74.28 73.76 73.31 73.25 73.25 73.69 73.91 73.76 73.61 73.99 73.98 73.74 73.57 73.50 73.38 73.05 72.87 73.17 73.20 73.15 73.09 72.95 73.07 72.99 73.30 73.55 73.33 73.11 73.13 72.97 73.07 72.44 72.60 72.45 73.00 72.65 71.39 73.23
72.80 72.46 72.78 73.50 74.18 74.19 73.86 73.46 73.13 73.38 73.69 73.87 73.66 73.80 73.90 73.56 73.50 73.22 73.09 72.91 72.73 71.84 71.67 72.03 72.18 72.38 72.48 72.76 72.96 72.95 72.97 72.56 72.34 73.02 72.79 72.65 72.48 72.33 72.18 72.81 72.28 71.96 72.90
72.34 72.54 72.69 72.91 73.74 74.02 73.91 73.67 73.47 73.82 73.97 73.75 73.66 73.81 73.81 73.50 73.26 73.02 72.79 72.37 72.18 71.20 70.66 71.13 71.65 71.74 72.01 72.32 72.47 72.32 72.40 72.51 72.03 72.62 72.92 69.67 70.09 71.81 71.79 72.74 72.66 72.65 72.54
72.83 72.31 72.43 72.67 73.21 73.80 73.72 73.46 73.54 74.15 73.97 73.62 73.79 73.72 73.67 73.31 72.75 72.63 72.63 72.15 72.01 71.08 70.19 70.28 70.86 71.37 71.40 72.07 72.09 72.07 72.03 71.91 71.90 71.82 71.34 71.33 69.50 71.47 71.47 71.76 72.17 71.81 72.17
73.00 72.10 72.92 72.10 72.47 73.43 73.47 73.54 73.53 73.68 73.55 73.30 73.35 73.66 73.61 73.27 72.66 72.17 72.34 72.02 71.63 70.67 70.11 69.81 70.05 70.21 70.54 71.06 71.44 71.54 71.51 71.24 71.20 70.91 70.17 69.48 68.40 70.94 71.37 71.17 71.52 71.92 71.79
73.43 72.26 70.47 71.19 71.91 72.85 73.25 73.49 73.42 73.34 72.78 72.86 73.03 73.25 73.39 73.05 72.62 72.27 71.90 71.62 71.46 70.87 70.01 69.53 68.99 69.03 69.50 69.98 70.44 70.75 70.00 70.38 70.12 67.90 69.83 70.73 69.42 71.52 71.07 70.58 71.25 71.24 70.96
73.31 73.27 71.69 70.58 71.59 72.48 73.24 73.56 73.22 72.68 72.38 72.62 72.81 72.90 73.05 72.77 72.55 71.98 71.50 71.56 71.35 70.97 69.82 68.63 67.89 67.83 67.97 68.75 70.25 70.29 69.68 69.35 69.03 68.69 68.75 68.87 69.94 72.10 71.32 70.51 70.63 70.88 70.65
73.93 73.36 71.52 71.62 71.56 71.87 72.32 72.38 71.78 71.76 71.75 72.04 72.35 72.36 72.61 72.36 72.06 71.60 71.39 71.17 70.94 70.14 69.03 67.52 67.04 66.85 66.66 66.92 68.47 69.45 69.00 68.83 68.70 68.28 67.20 69.79 70.65 72.00 71.02 70.35 70.26 70.00 70.02
75.07 74.60 72.42 71.44 71.91 71.23 70.89 70.72 70.50 70.94 71.18 71.31 71.49 71.58 71.68 71.52 71.02 71.12 71.36 70.99 70.28 69.26 67.81 66.73 65.95 65.50 65.79 67.07 67.83 68.28 68.25 68.43 67.45 68.26 69.41 69.75 71.49 71.93 71.07 70.54 70.07 69.43 69.12
75.53 74.94 73.24 71.61 71.46 71.46 71.24 70.23 69.84 70.02 70.15 70.68 70.91 70.89 70.63 70.81 70.40 70.47 70.59 70.29 69.83 68.51 67.15 66.00 65.11 64.24 64.17 65.20 67.22 67.32 67.58 68.05 66.47 67.31 66.80 69.45 71.31 71.56 71.34 70.57 69.84 69.61 69.08
73.88 74.75 73.36 72.10 71.31 71.07 71.13 71.21 70.47 70.46 70.35 70.47 70.85 70.62 69.28 70.57 69.88 69.77 69.70 69.34 69.08 68.00 66.95 65.81 64.82 63.79 63.05 62.70 65.59 66.89 67.22 65.77 64.79 64.79 65.14 69.09 71.25 71.81 71.47 71.08 70.26 69.69 69.17
71.92 73.50 74.36 73.47 72.42 72.19 71.50 71.32 71.07 70.75 70.62 70.77 70.43 70.68 70.58 69.97 69.94 69.68 69.19 68.65 68.31 67.61 66.80 65.85 64.81 63.87 62.15 59.18 58.84 66.15 64.34 63.65 63.05 63.69 65.78 68.72 70.92 71.69 71.47 71.24 70.13 69.71 69.00
71.71 72.46 73.53 73.83 73.83 72.95 72.07 71.56 70.76 70.55 70.00 70.26 70.38 70.58 70.01 70.11 71.37 70.16 68.16 68.05 67.62 67.40 66.10 64.96 63.71 62.71 62.32 61.45 61.18 61.12 61.46 61.45 61.96 62.77 65.82 67.95 70.22 71.64 70.92 71.19 70.47 70.02 69.23
70.64 71.81 73.01 73.45 73.68 73.85 73.36 72.66 71.57 70.27 70.31 70.00 70.64 71.07 70.21 70.38 70.81 70.29 70.22 69.61 68.72 67.69 66.87 66.70 66.84 66.09 66.03 66.35 64.70 63.97 62.81 60.97 60.17 61.79 63.83 66.61 68.41 70.68 70.85 70.51 70.26 69.70 69.61
70.39 71.18 72.54 72.94 73.20 73.04 73.85 72.10 72.50 70.86 70.57 71.09 71.34 71.69 71.79 70.67 70.33 70.31 70.09 69.71 68.96 68.89 68.27 68.30 68.13 67.85 66.69 67.24 67.07 66.37 64.19 62.53 62.13 61.85 61.12 65.31 66.33 68.71 70.40 69.93 69.94 69.66 69.04
67.46 71.12 72.37 72.43 73.31 73.06 72.98 71.59 71.78 71.59 71.34 71.95 71.92 71.34 71.43 71.01 70.12 69.96 69.65 69.72 69.33 69.31 69.18 68.55 67.57 67.56 66.67 66.11 66.16 66.21 66.06 65.46 63.29 62.56 62.42 62.32 64.25 65.71 67.76 69.26 69.87 70.11 69.67
66.04 71.82 71.71 72.46 73.06 72.73 72.54 71.71 70.46 69.78 71.05 70.99 70.93 71.50 71.68 71.05 70.27 69.91 69.26 68.80 69.21 69.14 68.23 67.94 67.43 67.32 66.49 66.27 66.42 66.64 66.44 65.58 65.52 64.93 63.79 62.80 62.21 62.78 64.29 66.44 67.85 68.65 69.34
64.48 69.27 72.20 72.76 72.41 72.44 71.86 71.75 70.91 70.11 69.67 70.32 70.54 70.45 71.29 71.12 70.61 69.72 69.10 68.43 68.85 68.63 67.72 67.10 66.18 65.02 63.92 63.21 63.96 63.77 63.90 63.96 64.00 64.28 63.84 63.30 63.85 63.99 62.49 63.68 65.21 66.59 67.71
63.52 69.12 71.74 72.10 71.92 72.31 71.91 71.76 71.13 69.80 69.12 68.92 69.69 70.47 70.72 70.62 69.91 69.47 68.85 68.18 68.29 67.47 66.27 65.60 63.84 63.12 62.19 61.72 61.70 61.98 61.96 61.99 62.43 64.06 63.39 63.61 62.83 62.34 62.73 62.48 62.69 63.63 65.10
64.21 68.16 72.26 71.96 71.87 71.89 71.37 70.67 70.34 69.04 68.83 68.76 69.11 69.39 69.74 69.42 69.79 69.17 68.19 67.41 67.11 67.13 66.08 65.36 64.14 64.10 62.54 61.36 60.71 60.09 60.44 60.29 61.06 60.91 61.61 62.95 63.41 62.49 61.76 62.11 61.67 62.23 61.88
66.29 66.62 71.22 71.21 71.40 71.31 70.25 68.36 67.70 66.50 67.13 67.47 68.54 68.73 69.07 69.13 69.13 68.59 67.89 67.06 66.77 65.44 64.51 62.53 60.09 57.13 56.46 56.81 54.25 54.18 57.84 58.82 58.44 59.53 59.86 60.02 60.59 61.54 60.70 60.77 60.74 61.78 62.85
66.04 66.67 69.83 71.21 70.48 69.80 69.03 68.42 68.03 67.28 67.23 67.79 68.23 68.45 68.21 68.04 68.06 67.78 65.04 62.47 59.96 58.49 57.85 57.02 56.24 54.64 54.30 54.61 52.08 50.67 47.57 49.70 52.99 56.26 57.92 57.50 57.23 58.51 59.56 59.74 59.63 59.74 60.72
66.67 67.03 69.41 69.80 69.26 68.70 67.95 67.49 66.98 67.92 67.63 66.56 66.67 66.09 65.84 64.06 61.94 60.63 58.68 57.14 55.87 55.20 53.83 54.34 53.43 52.62 50.54 51.84 52.44 50.43 45.93 43.96 47.29 49.99 51.14 54.34 56.03 56.37 56.81 58.03 57.79 58.28 58.22
65.96 67.99 69.88 68.34 68.29 67.91 67.51 66.02 66.02 63.67 61.79 61.10 60.43 59.80 59.98 59.31 58.17 57.36 55.87 54.92 54.00 53.10 52.43 52.25 52.43 52.46 50.81 48.18 49.71 51.42 49.55 48.69 45.33 43.91 47.43 49.94 52.70 52.88 52.30 55.55 56.79 56.94 57.51
66.06 67.18 68.86 67.19 67.00 66.29 64.49 63.92 62.56 59.86 58.77 58.28 56.88 56.55 56.21 56.09 55.24 54.64 54.22 53.28 52.91 52.77 52.38 51.69 50.97 50.65 50.71 49.19 48.54 48.01 47.88 48.49 47.93 46.12 43.36 46.32 49.50 51.53 52.76 53.47 56.18 55.95 55.70
65.36 67.37 66.81 65.39 63.52 62.75 62.17 60.80 57.51 55.39 55.21 53.59 53.98 52.83 53.48 53.68 53.90 52.87 54.03 52.60 52.52 51.73 51.27 51.22 51.07 50.62 49.88 49.64 49.54 49.36 48.49 47.00 46.50 46.51 45.65 46.28 46.93 49.29 51.39 52.27 52.77 55.26 55.49
MSLP
1007.06 1008.55 1009.18 1009.53 1009.89 1010.32 1010.88 1011.33 1011.80 1012.19 1012.43 1012.74 1013.09 1013.42 1013.78 1014.06 1014.32 1014.55 1014.72 1014.86 1015.03 1015.13 1015.32 1015.39 1015.49 1015.64 1015.75 1015.82 1015.83 1015.86 1015.93 1015.94 1016.03 1016.16 1016.32 1016.51 1016.74 1016.90 1017.04 1017.07 1017.13 1017.28 1017.58
1006.86 1008.39 1009.16 1009.54 1009.95 1010.38 1010.92 1011.45 1011.93 1012.29 1012.59 1012.93 1013.35 1013.65 1014.04 1014.28 1014.55 1014.78 1014.93 1015.16 1015.32 1015.41 1015.48 1015.55 1015.68 1015.85 1015.96 1016.04 1016.16 1016.16 1016.19 1016.18 1016.19 1016.39 1016.51 1016.68 1017.00 1017.17 1017.18 1017.02 1017.25 1017.55 1017.84
1007.06 1008.26 1009.06 1009.63 1010.05 1010.52 1010.99 1011.48 1011.96 1012.45 1012.81 1013.05 1013.50 1013.81 1014.22 1014.58 1014.84 1014.96 1015.19 1015.35 1015.58 1015.66 1015.78 1015.79 1015.95 1016.08 1016.29 1016.40 1016.44 1016.54 1016.55 1016.45 1016.47 1016.60 1016.53 1016.52 1017.00 1017.36 1017.54 1017.58 1017.64 1017.81 1018.08
1007.00 1008.17 1008.94 1009.70 1010.10 1010.59 1011.04 1011.56 1012.02 1012.49 1012.88 1013.21 1013.56 1013.96 1014.39 1014.71 1015.00 1015.21 1015.40 1015.63 1015.81 1015.95 1016.01 1016.09 1016.25 1016.48 1016.69 1016.77 1016.75 1016.80 1016.78 1016.50 1016.65 1016.85 1016.87 1016.67 1016.83 1017.50 1017.74 1017.82 1017.95 1018.10 1018.26
1006.79 1007.95 1008.89 1009.69 1010.16 1010.68 1011.20 1011.74 1012.15 1012.54 1012.98 1013.34 1013.71 1014.09 1014.52 1014.81 1015.11 1015.34 1015.57 1015.80 1016.02 1016.14 1016.29 1016.38 1016.50 1016.68 1016.88 1017.07 1017.02 1016.99 1016.93 1016.58 1016.87 1017.02 1016.57 1016.51 1016.72 1017.59 1017.98 1018.08 1018.17 1018.23 1018.38
1006.55 1007.50 1009.08 1009.84 1010.29 1010.77 1011.30 1011.86 1012.28 1012.71 1013.17 1013.52 1013.84 1014.27 1014.68 1014.92 1015.23 1015.48 1015.73 1015.92 1016.17 1016.37 1016.45 1016.63 1016.80 1016.98 1017.06 1017.19 1017.18 1017.20 1017.07 1016.97 1017.09 1016.74 1016.42 1016.37 1016.74 1017.47 1017.96 1018.26 1018.27 1018.36 1018.49
1006.34 1007.37 1008.90 1009.81 1010.47 1010.91 1011.38 1011.89 1012.33 1012.85 1013.27 1013.70 1014.01 1014.47 1014.82 1015.06 1015.31 1015.67 1015.94 1016.14 1016.30 1016.51 1016.74 1016.90 1017.05 1017.16 1017.20 1017.36 1017.38 1017.33 1017.16 1017.11 1017.03 1016.43 1016.56 1016.05 1016.78 1017.40 1017.77 1018.15 1018.42 1018.57 1018.70
1006.72 1007.85 1009.05 1009.85 1010.51 1010.95 1011.44 1011.99 1012.43 1012.94 1013.40 1013.80 1014.13 1014.51 1014.83 1015.23 1015.45 1015.85 1016.17 1016.32 1016.45 1016.70 1016.97 1017.12 1017.21 1017.31 1017.29 1017.31 1017.42 1017.49 1017.41 1017.27 1017.05 1016.59 1015.85 1016.08 1016.50 1017.07 1017.52 1017.95 1018.39 1018.52 1018.74
1006.86 1007.90 1009.13 1009.90 1010.51 1011.06 1011.54 1012.07 1012.45 1012.94 1013.37 1013.83 1014.19 1014.46 1014.81 1015.30 1015.71 1015.84 1016.00 1016.35 1016.64 1016.86 1017.07 1017.17 1017.24 1017.29 1017.37 1017.32 1017.34 1017.38 1017.42 1017.33 1017.17 1016.61 1016.08 1016.27 1016.81 1017.17 1017.44 1017.77 1018.29 1018.55 1018.71
1007.09 1008.01 1009.09 1009.73 1010.37 1010.99 1011.54 1012.07 1012.48 1012.86 1013.32 1013.75 1014.16 1014.47 1014.81 1015.21 1015.57 1015.93 1016.08 1016.33 1016.67 1016.87 1017.03 1017.15 1017.26 1017.31 1017.29 1017.31 1017.33 1017.39 1017.44 1017.37 1017.16 1016.57 1016.01 1016.04 1016.47 1016.84 1017.13 1017.44 1018.02 1018.38 1018.55
1007.44 1008.13 1009.02 1009.62 1009.99 1010.50 1011.02 1011.89 1012.54 1012.89 1013.33 1013.74 1014.14 1014.54 1015.02 1015.20 1015.52 1015.89 1016.04 1016.20 1016.53 1016.78 1017.00 1017.05 1017.19 1017.29 1017.35 1017.36 1017.27 1017.29 1017.33 1017.18 1016.70 1016.29 1015.88 1016.32 1016.39 1016.60 1016.89 1017.23 1017.68 1018.00 1018.20
1006.96 1007.72 1008.54 1009.21 1009.71 1010.01 1010.28 1011.29 1012.08 1012.60 1013.09 1013.46 1013.82 1014.30 1014.72 1014.76 1014.86 1015.07 1015.51 1016.08 1016.30 1016.58 1016.79 1016.98 1017.01 1017.10 1017.20 1017.05 1017.01 1017.12 1017.12 1016.81 1016.51 1016.15 1016.07 1016.28 1016.36 1016.47 1016.62 1016.84 1017.28 1017.68 1017.90
1005.60 1006.90 1007.77 1008.57 1009.20 1009.58 1009.61 1010.65 1011.27 1011.90 1012.54 1013.01 1013.26 1013.71 1014.18 1014.34 1014.38 1014.74 1015.36 1015.77 1016.18 1016.42 1016.55 1016.74 1016.82 1016.84 1016.62 1016.46 1016.39 1016.71 1016.53 1016.46 1016.29 1015.94 1015.75 1016.08 1016.12 1016.20 1016.41 1016.71 1017.06 1017.47 1017.69
1004.55 1005.80 1007.07 1007.94 1008.78 1009.19 1009.23 1010.14 1010.45 1011.18 1011.91 1012.41 1012.79 1013.19 1013.65 1013.91 1014.22 1014.51 1014.97 1015.08 1015.40 1015.75 1015.93 1015.99 1015.98 1016.00 1016.03 1015.83 1015.90 1016.17 1016.24 1016.25 1016.23 1016.03 1015.91 1015.94 1016.06 1016.10 1016.20 1016.44 1016.75 1017.09 1017.36
1003.91 1005.02 1006.23 1007.31 1008.41 1009.10 1009.28 1009.62 1010.05 1010.66 1011.19 1011.67 1012.13 1012.62 1013.08 1013.56 1014.08 1014.32 1014.64 1014.85 1014.92 1014.98 1015.18 1015.23 1015.47 1015.52 1015.54 1015.57 1015.84 1016.00 1016.10 1016.22 1016.20 1016.07 1015.97 1016.06 1016.08 1016.08 1016.02 1016.02 1016.26 1016.61 1016.98
1002.68 1004.14 1005.43 1006.52 1007.71 1008.69 1008.96 1009.65 1010.08 1010.41 1010.80 1011.25 1011.64 1012.12 1012.74 1013.23 1013.70 1014.06 1014.45 1014.60 1014.75 1014.76 1014.94 1015.00 1015.07 1015.35 1015.38 1015.50 1015.73 1015.75 1015.81 1015.74 1015.78 1015.87 1015.75 1015.65 1015.84 1015.85 1015.79 1015.68 1015.66 1015.86 1016.16
1002.38 1003.46 1004.75 1005.88 1006.98 1008.18 1008.75 1009.39 1010.06 1010.30 1010.78 1011.19 1011.62 1011.87 1012.31 1012.74 1013.17 1013.61 1014.13 1014.37 1014.32 1014.54 1014.79 1015.01 1015.09 1015.02 1015.33 1015.52 1015.70 1015.58 1015.62 1015.66 1015.64 1015.49 1015.27 1015.24 1015.13 1015.26 1015.28 1015.16 1015.09 1015.14 1015.28
1002.03 1002.83 1004.05 1005.15 1006.40 1007.74 1008.70 1009.05 1009.68 1010.02 1010.57 1011.10 1011.48 1011.65 1011.96 1012.41 1012.74 1013.14 1013.59 1013.92 1014.02 1014.20 1014.62 1014.89 1015.12 1015.35 1015.69 1015.85 1015.84 1015.69 1015.78 1015.63 1015.54 1015.30 1015.16 1015.03 1014.57 1014.26 1014.28 1014.24 1014.33 1014.38 1014.45
1001.73 1002.29 1003.51 1004.55 1005.77 1007.15 1008.30 1008.72 1009.31 1009.73 1010.44 1010.69 1010.97 1011.40 1011.81 1012.24 1012.48 1012.86 1013.35 1013.65 1013.77 1014.23 1014.71 1015.08 1015.44 1015.71 1015.76 1015.82 1015.80 1015.63 1015.60 1015.51 1015.35 1014.75 1014.48 1014.33 1014.24 1013.95 1013.66 1013.64 1013.71 1013.80 1013.96
1001.56 1002.00 1003.08 1004.14 1005.25 1006.59 1007.87 1008.57 1009.13 1009.75 1010.31 1010.45 1010.85 1011.30 1011.68 1012.19 1012.49 1012.80 1013.05 1013.41 1013.84 1014.28 1014.62 1014.92 1015.33 1015.44 1015.42 1015.48 1015.50 1015.36 1015.31 1015.12 1014.95 1014.54 1014.30 1013.84 1013.41 1013.25 1013.28 1013.36 1013.50 1013.81 1013.84
1001.53 1001.98 1002.90 1004.04 1004.94 1006.18 1007.35 1008.28 1009.13 1009.64 1010.21 1010.61 1010.88 1011.14 1011.52 1011.96 1012.31 1012.73 1013.26 1013.51 1013.64 1014.19 1014.30 1014.79 1015.01 1015.25 1015.33 1015.26 1015.47 1015.15 1014.78 1014.47 1014.20 1013.87 1013.56 1013.30 1013.03 1012.78 1012.86 1012.90 1012.96 1012.95 1012.85
1001.99 1002.04 1002.68 1003.88 1004.91 1005.90 1007.31 1008.10 1008.87 1009.54 1010.13 1010.48 1010.83 1011.11 1011.53 1011.81 1012.11 1012.61 1013.07 1013.37 1013.55 1013.92 1014.35 1014.74 1015.07 1015.48 1015.64 1015.45 1015.59 1015.48 1014.70 1014.13 1013.55 1013.09 1012.96 1012.91 1012.86 1012.67 1012.61 1012.50 1012.55 1012.53 1012.50
1002.23 1002.35 1002.79 1004.03 1005.02 1006.00 1007.25 1008.23 1008.92 1009.58 1009.96 1010.31 1010.84 1011.29 1011.59 1011.77 1012.16 1012.54 1013.06 1013.60 1014.01 1014.30 1014.68 1014.93 1015.17 1015.49 1015.72 1015.61 1015.63 1015.81 1014.97 1014.21 1013.84 1013.68 1013.15 1012.80 1012.53 1012.41 1012.25 1011.99 1011.98 1012.14 1012.03
1001.57 1002.43 1003.23 1004.19 1005.17 1006.20 1007.15 1008.03 1008.66 1009.08 1009.75 1010.22 1010.67 1011.14 1011.50 1011.93 1012.40 1012.58 1013.20 1013.56 1014.06 1014.36 1014.64 1014.97 1015.17 1015.47 1015.66 1015.83 1015.64 1015.42 1015.34 1015.01 1014.51 1012.63 1012.96 1012.74 1012.32 1011.83 1011.45 1011.31 1011.15 1011.07 1011.08
1000.71 1001.85 1003.12 1004.20 1005.23 1006.16 1006.96 1007.70 1008.52 1009.02 1009.82 1010.32 1010.85 1011.44 1011.88 1012.29 1012.60 1012.86 1013.10 1013.74 1014.14 1014.53 1014.82 1015.02 1015.15 1015.31 1015.47 1015.69 1015.74 1015.65 1015.40 1015.17 1014.95 1014.47 1012.05 1012.53 1011.94 1011.36 1010.83 1010.41 1010.30 1010.37 1010.18
1000.44 1001.60 1003.09 1004.46 1005.51 1006.25 1006.92 1007.57 1008.19 1008.73 1009.76 1010.44 1010.96 1011.48 1012.16 1012.38 1013.05 1013.11 1013.29 1013.63 1014.19 1014.57 1014.78 1014.98 1015.15 1015.36 1015.50 1015.58 1015.57 1015.60 1015.60 1015.51 1015.13 1014.66 1013.55 1012.69 1011.86 1011.50 1011.09 1010.69 1010.34 1009.98 1009.61
Wind_Speed
16 15 13 14 14 15 14 13 13 12 12 12 12 12 11 11 10 10 10 10 9 10 9 9 9 8 9 9 10 10 10 10 10 11 12 12 11 11 9 4 3 12 11
20 17 13 14 15 15 15 14 13 13 13 12 12 13 11 11 10 10 9 8 8 8 8 8 8 7 7 9 8 8 8 7 8 9 11 13 11 10 12 15 13 11 9
18 16 15 14 15 15 15 15 14 14 13 13 12 13 12 11 9 9 9 8 7 7 6 7 7 7 7 7 8 7 5 3 6 6 12 8 8 10 11 11 12 10 8
18 14 14 14 15 15 15 15 15 15 14 13 13 13 12 11 10 8 8 8 7 6 6 6 6 6 6 6 6 5 2 5 5 5 5 4 10 10 9 10 9 9 9
16 14 15 14 14 14 14 14 15 14 13 13 13 13 13 12 11 9 8 8 7 7 5 5 5 5 6 4 4 3 2 7 5 6 8 5 7 10 8 6 7 6 3
15 15 19 14 14 15 14 14 14 13 12 12 12 12 12 12 11 9 8 8 7 7 6 5 4 4 5 3 3 0 4 9 10 7 3 8 9 13 8 3 7 8 7
13 16 17 16 14 14 14 14 13 12 12 12 11 10 11 11 11 9 8 7 7 6 6 5 4 4 4 2 2 2 6 8 7 10 4 8 11 13 11 7 6 7 6
16 14 14 17 14 14 14 13 12 12 12 12 11 11 10 10 10 9 7 7 8 7 6 4 4 3 3 2 1 1 5 8 9 9 9 9 16 15 14 10 7 7 7
13 14 12 12 13 12 12 12 12 12 12 12 11 11 10 10 9 10 10 8 8 7 6 5 4 3 2 2 3 3 4 8 6 7 11 7 14 14 13 12 9 9 9
8 12 12 12 12 11 10 11 12 12 12 12 11 10 10 10 10 10 10 9 8 7 6 5 5 4 4 4 4 4 4 8 7 8 6 7 17 16 15 14 11 8 9
6 10 12 12 12 11 11 10 10 11 11 11 10 10 7 6 8 10 10 13 10 8 6 6 5 4 4 6 6 6 4 4 7 5 2 12 15 16 17 15 12 12 11
12 11 12 12 12 12 11 12 10 10 8 8 9 9 7 7 8 10 11 14 12 10 8 6 6 6 5 5 4 6 4 6 5 5 3 12 13 15 15 14 13 13 13
17 13 13 10 11 12 9 9 7 6 6 7 10 9 9 7 5 4 6 7 6 8 5 6 5 5 7 6 2 5 6 5 4 4 3 11 12 14 14 13 13 14 13
19 17 15 13 9 7 6 9 10 8 8 8 9 10 8 5 4 4 4 5 6 6 7 7 5 7 7 7 2 5 5 4 3 3 1 11 11 13 14 14 15 15 15
17 17 18 16 12 10 6 5 4 9 8 9 9 9 6 4 4 4 4 4 3 4 5 5 5 4 3 1 2 4 5 5 6 4 2 10 10 11 13 15 16 17 18
9 19 19 18 14 12 7 10 6 6 7 4 4 7 8 5 5 5 5 4 4 3 4 3 4 4 3 3 4 5 5 5 6 6 4 4 13 13 14 16 18 19 21
5 19 19 18 15 12 10 10 7 7 6 6 6 5 7 7 6 6 4 4 5 5 6 4 5 2 1 1 4 3 4 3 4 5 6 5 5 17 16 18 20 21 22
8 14 19 16 17 13 10 10 8 8 6 5 5 6 6 7 8 5 4 4 3 3 1 1 2 2 2 2 4 3 4 5 6 7 7 6 7 7 15 21 22 23 23
8 12 19 17 18 15 11 9 8 11 6 6 5 4 6 7 6 5 4 3 3 2 2 3 0 1 2 2 4 4 4 4 6 7 9 9 10 9 8 11 21 21 23
7 7 18 15 16 15 9 8 5 8 7 4 4 4 6 4 5 4 3 3 3 2 3 4 4 5 3 4 4 6 6 6 8 9 10 10 9 10 8 10 6 10 20
6 7 15 16 15 12 9 9 7 7 6 5 5 6 5 5 5 4 2 3 4 4 3 3 0 2 3 3 3 4 5 9 11 9 10 10 12 11 7 8 8 9 8
7 7 8 15 14 11 7 7 6 7 7 7 6 6 7 5 5 6 4 3 5 4 5 3 3 2 3 3 3 3 5 5 6 7 8 7 7 6 7 7 7 8 9
7 6 7 15 14 11 10 6 5 6 5 4 6 7 7 6 6 7 6 5 5 3 1 2 2 3 3 3 4 3 5 4 8 6 11 5 7 5 6 9 7 7 7
10 8 12 14 13 11 12 9 11 7 8 5 7 4 5 7 6 7 5 4 3 2 2 2 2 2 2 4 4 4 6 7 10 12 4 6 8 11 8 7 8 10 10
13 10 10 14 13 12 11 12 9 10 7 6 6 7 6 5 5 5 6 4 3 1 2 3 3 4 3 3 4 4 4 5 7 10 16 10 8 7 7 8 9 8 8
11 11 11 14 12 11 13 12 11 13 11 9 7 6 4 4 3 5 5 4 2 1 2 3 3 4 4 4 4 5 6 6 8 9 13 13 14 10 9 9 8 8 9
Wind_Direction
126 137 135 132 132 133 137 137 135 132 129 128 124 119 114 110 104 96 93 93 98 102 100 94 86 78 74 72 73 75 73 78 85 93 95 92 88 82 61 12 196 90 77
124 143 138 134 133 134 138 139 139 138 136 134 131 123 120 118 114 110 107 102 106 107 110 105 104 100 100 100 92 85 86 105 116 122 121 108 93 76 62 54 93 95 90
129 141 145 131 132 138 142 146 144 141 142 141 138 131 128 126 123 121 118 118 117 116 115 110 108 112 107 102 93 89 97 159 158 166 169 126 102 85 81 83 95 101 102
135 145 142 136 137 141 144 148 145 145 149 148 144 138 135 137 138 137 128 121 122 127 127 121 115 105 100 97 95 94 117 238 225 220 242 198 113 98 89 94 102 120 122
136 151 136 139 137 139 142 147 145 149 151 151 148 145 143 148 153 150 135 127 132 135 132 119 117 110 102 100 105 105 277 269 286 278 255 104 112 116 109 112 131 131 172
138 154 138 138 137 139 142 145 144 148 149 151 152 149 151 157 159 152 138 136 138 140 137 127 117 111 101 99 92 42 292 303 321 285 229 123 102 130 129 102 98 110 126
141 124 144 138 140 142 143 144 144 147 149 150 151 151 158 160 154 147 138 134 133 135 131 131 122 116 116 99 72 309 286 302 298 291 234 128 126 140 141 133 114 118 123
116 131 140 140 142 144 143 142 144 148 151 150 151 157 158 156 147 143 140 138 129 120 130 141 131 128 128 137 151 310 302 301 295 289 277 129 145 152 154 149 148 137 127
122 129 141 155 145 141 146 147 151 154 153 154 156 162 160 151 148 150 151 146 138 137 150 157 152 156 185 215 212 211 260 285 291 288 290 122 141 154 157 152 158 160 156
111 121 140 158 158 159 158 156 160 162 159 160 162 167 169 161 159 161 156 158 153 160 165 173 174 187 204 227 233 243 268 289 273 280 292 149 158 163 159 158 175 188 184
139 137 147 160 166 170 164 165 163 165 163 162 166 176 158 187 177 165 191 159 164 169 180 185 194 207 227 241 234 230 242 254 263 248 296 156 159 166 169 171 184 189 190
168 159 155 168 171 173 174 156 176 175 178 182 182 174 194 212 178 190 161 160 170 175 185 199 212 223 235 243 204 205 225 240 266 263 120 158 167 175 178 177 186 197 196
172 168 165 168 173 180 193 156 169 175 181 189 189 179 196 205 203 168 142 158 167 182 191 198 205 227 220 229 169 202 212 228 239 262 126 172 178 185 187 187 192 206 206
164 166 161 164 174 193 152 166 173 172 183 186 195 193 186 208 183 179 169 187 189 173 213 188 205 215 223 213 280 309 322 319 301 317 158 176 193 195 196 202 206 216 213
162 163 161 160 169 184 198 165 166 179 185 188 183 193 185 186 182 188 193 203 201 196 203 203 212 234 218 281 292 248 228 257 286 292 292 197 206 212 210 212 217 219 219
175 158 157 161 167 178 186 170 171 168 180 178 162 179 182 179 182 189 192 194 212 217 250 254 216 233 216 195 241 249 248 240 234 259 249 235 206 215 219 219 220 222 223
214 154 159 159 161 177 186 155 172 187 176 176 181 195 178 180 188 190 194 211 206 205 217 233 246 246 219 256 251 304 265 297 308 272 247 242 226 217 219 223 222 223 223
199 161 159 157 160 164 198 167 175 171 179 173 194 199 190 187 183 187 208 203 179 165 210 144 55 37 348 332 294 290 298 296 282 263 271 274 257 253 217 220 222 223 223
227 153 160 156 160 163 188 168 179 152 168 193 178 169 181 185 184 175 178 188 122 169 129 93 135 205 240 258 276 275 272 274 276 275 256 259 260 260 260 225 229 228 229
230 151 157 156 156 159 167 173 126 151 163 178 164 149 139 134 165 156 165 174 202 168 174 166 202 196 216 228 249 249 235 242 255 256 265 270 252 249 262 273 262 243 242
207 175 155 155 158 156 156 160 149 158 151 149 140 136 155 147 176 148 156 204 191 201 169 150 200 330 313 317 295 285 251 237 242 243 245 247 257 262 259 247 249 264 243
222 174 161 152 145 152 152 161 156 156 169 165 156 153 149 143 148 182 154 128 83 54 35 28 18 330 296 298 276 296 281 294 267 234 239 247 251 258 261 251 250 255 269
223 180 168 142 151 150 147 138 146 174 152 143 153 149 160 138 113 89 82 63 56 63 334 4 17 312 280 284 300 256 319 260 325 301 293 266 250 249 245 250 234 248 248
188 176 140 140 154 152 154 155 175 157 152 148 140 122 111 123 120 111 94 96 80 39 357 316 344 13 336 294 309 279 276 289 296 298 243 283 279 266 253 244 224 232 246
171 164 147 152 153 149 150 156 162 146 143 144 128 121 126 113 123 119 109 90 76 65 7 1 319 300 291 286 283 300 300 308 309 298 299 294 279 275 258 251 239 221 230
167 138 125 137 145 147 152 153 155 148 145 143 137 130 159 136 155 139 125 114 87 57 355 360 347 323 302 292 293 291 288 286 288 282 288 294 294 299 294 282 269 240 229